| time (UTC) | temp F | wind direction | speed MPH | gust MPH | rain 1hr in | rain 24hr in | rain mn in | humidity % | barometer mb |
| 20260505181025 | 81 | 269 | 5.0 | 17.0 | 0.00 | 0.00 | 0.00 | 37 | 1009.5 |
| 20260505180526 | 81 | 177 | 6.0 | 17.0 | 0.00 | 0.00 | 0.00 | 37 | 1009.6 |
| 20260505180048 | 81 | 281 | 4.0 | 16.0 | 0.00 | 0.00 | 0.00 | 39 | 1009.7 |
| 20260505175525 | 81 | 142 | 5.0 | 16.0 | 0.00 | 0.00 | 0.00 | 39 | 1009.7 |
| 20260505175025 | 81 | 254 | 6.0 | 17.0 | 0.00 | 0.00 | 0.00 | 38 | 1009.8 |
| 20260505174547 | 81 | 227 | 5.0 | 17.0 | 0.00 | 0.00 | 0.00 | 39 | 1009.8 |
| 20260505174025 | 80 | 211 | 4.0 | 16.0 | 0.00 | 0.00 | 0.00 | 39 | 1009.9 |
| 20260505173528 | 80 | 246 | 6.0 | 16.0 | 0.00 | 0.00 | 0.00 | 38 | 1009.9 |
| 20260505173059 | 80 | 260 | 7.0 | 14.0 | 0.00 | 0.00 | 0.00 | 38 | 1010.0 |
| 20260505172528 | 81 | 293 | 4.0 | 14.0 | 0.00 | 0.00 | 0.00 | 40 | 1009.8 |
| 20260505172027 | 80 | 224 | 7.0 | 15.0 | 0.00 | 0.00 | 0.00 | 38 | 1010.0 |
| 20260505171556 | 81 | 211 | 3.0 | 15.0 | 0.00 | 0.00 | 0.00 | 38 | 1009.9 |
| 20260505171026 | 80 | 256 | 5.0 | 12.0 | 0.00 | 0.00 | 0.00 | 39 | 1010.0 |
| 20260505170525 | 80 | 250 | 5.0 | 13.0 | 0.00 | 0.00 | 0.00 | 39 | 1010.0 |
| 20260505170043 | 80 | 178 | 5.0 | 14.0 | 0.00 | 0.00 | 0.00 | 40 | 1010.1 |
| 20260505165525 | 80 | 230 | 4.0 | 15.0 | 0.00 | 0.00 | 0.00 | 40 | 1010.1 |
| 20260505165026 | 80 | 107 | 6.0 | 15.0 | 0.00 | 0.00 | 0.00 | 38 | 1010.1 |
| 20260505164546 | 80 | 246 | 4.0 | 12.0 | 0.00 | 0.00 | 0.00 | 40 | 1010.2 |
| 20260505164025 | 80 | 280 | 4.0 | 12.0 | 0.00 | 0.00 | 0.00 | 39 | 1010.2 |
| 20260505163525 | 80 | 275 | 1.0 | 11.0 | 0.00 | 0.00 | 0.00 | 41 | 1010.2 |
| 20260505163045 | 80 | 230 | 3.0 | 11.0 | 0.00 | 0.00 | 0.00 | 40 | 1010.2 |
| 20260505162527 | 79 | 225 | 3.0 | 10.0 | 0.00 | 0.00 | 0.00 | 40 | 1010.3 |
| 20260505162025 | 79 | 182 | 2.0 | 9.0 | 0.00 | 0.00 | 0.00 | 41 | 1010.3 |
| 20260505161546 | 78 | 202 | 3.0 | 12.0 | 0.00 | 0.00 | 0.00 | 40 | 1010.3 |
| 20260505161025 | 79 | 290 | 3.0 | 12.0 | 0.00 | 0.00 | 0.00 | 41 | 1010.4 |
| 20260505160526 | 78 | 215 | 4.0 | 12.0 | 0.00 | 0.00 | 0.00 | 41 | 1010.6 |
| 20260505153045 | 77 | 223 | 3.0 | 9.0 | 0.00 | 0.00 | 0.00 | 45 | 1010.9 |
| 20260505152524 | 76 | 243 | 3.0 | 8.0 | 0.00 | 0.00 | 0.00 | 44 | 1010.9 |
| 20260505152028 | 77 | 273 | 2.0 | 8.0 | 0.00 | 0.00 | 0.00 | 45 | 1010.9 |
| 20260505151544 | 76 | 223 | 4.0 | 10.0 | 0.00 | 0.00 | 0.00 | 45 | 1010.9 |
| 20260505151026 | 76 | 273 | 3.0 | 10.0 | 0.00 | 0.00 | 0.00 | 45 | 1010.9 |
| 20260505150526 | 75 | 261 | 3.0 | 10.0 | 0.00 | 0.00 | 0.00 | 45 | 1010.9 |
| 20260505150105 | 76 | 264 | 4.0 | 10.0 | 0.00 | 0.00 | 0.00 | 44 | 1010.8 |
| 20260505140528 | 72 | 242 | 4.0 | 15.0 | 0.00 | 0.00 | 0.00 | 49 | 1011.2 |
| 20260505130105 | 69 | 202 | 2.0 | 11.0 | 0.00 | 0.00 | 0.00 | 55 | 1011.2 |
| 20260505125026 | 68 | 295 | 2.0 | 10.0 | 0.00 | 0.00 | 0.00 | 55 | 1011.0 |
| 20260505124552 | 68 | 286 | 2.0 | 11.0 | 0.00 | 0.00 | 0.00 | 56 | 1011.0 |
| 20260505124025 | 67 | 244 | 4.0 | 11.0 | 0.00 | 0.00 | 0.00 | 56 | 1011.1 |
| 20260505123525 | 67 | 252 | 3.0 | 9.0 | 0.00 | 0.00 | 0.00 | 57 | 1011.1 |
| 20260505123054 | 66 | 277 | 2.0 | 13.0 | 0.00 | 0.00 | 0.00 | 58 | 1011.1 |
| 20260505122525 | 66 | 254 | 2.0 | 13.0 | 0.00 | 0.00 | 0.00 | 59 | 1011.1 |
| 20260505122024 | 66 | 180 | 3.0 | 10.0 | 0.00 | 0.00 | 0.00 | 60 | 1011.1 |
| 20260505121612 | 65 | 259 | 2.0 | 12.0 | 0.00 | 0.00 | 0.00 | 61 | 1011.0 |
| 20260505121025 | 65 | 280 | 4.0 | 12.0 | 0.00 | 0.00 | 0.00 | 61 | 1011.0 |
| 20260505120524 | 65 | 234 | 1.0 | 9.0 | 0.00 | 0.00 | 0.00 | 63 | 1011.0 |
| 20260505120047 | 64 | 227 | 2.0 | 9.0 | 0.00 | 0.00 | 0.00 | 64 | 1011.0 |
| 20260505115527 | 64 | 256 | 2.0 | 9.0 | 0.00 | 0.00 | 0.00 | 65 | 1010.9 |
| 20260505115026 | 63 | 197 | 4.0 | 8.0 | 0.00 | 0.00 | 0.00 | 66 | 1011.0 |
| 20260505114545 | 63 | 212 | 3.0 | 8.0 | 0.00 | 0.00 | 0.00 | 66 | 1011.0 |
| 20260505114024 | 62 | 160 | 2.0 | 8.0 | 0.00 | 0.00 | 0.00 | 69 | 1010.9 |
| 20260505113528 | 62 | 232 | 3.0 | 10.0 | 0.00 | 0.00 | 0.00 | 69 | 1010.9 |
| 20260505113046 | 62 | 201 | 2.0 | 10.0 | 0.00 | 0.00 | 0.00 | 70 | 1010.8 |
| 20260505112528 | 62 | 240 | 3.0 | 9.0 | 0.00 | 0.00 | 0.00 | 70 | 1010.8 |
| 20260505112024 | 61 | 336 | 2.0 | 5.0 | 0.00 | 0.00 | 0.00 | 71 | 1010.7 |
| 20260505111542 | 61 | 231 | 0.0 | 5.0 | 0.00 | 0.00 | 0.00 | 73 | 1010.8 |
| 20260505111024 | 61 | 234 | 2.0 | 5.0 | 0.00 | 0.00 | 0.00 | 73 | 1010.7 |
| 20260505110525 | 60 | 259 | 1.0 | 4.0 | 0.00 | 0.00 | 0.00 | 74 | 1010.7 |
| 20260505102025 | 59 | 267 | 1.0 | 7.0 | 0.00 | 0.00 | 0.00 | 76 | 1010.5 |
| 20260505101543 | 59 | 200 | 1.0 | 7.0 | 0.00 | 0.00 | 0.00 | 76 | 1010.4 |
| 20260505101025 | 59 | 258 | 2.0 | 7.0 | 0.00 | 0.00 | 0.00 | 76 | 1010.3 |
| 20260505100525 | 59 | 170 | 2.0 | 5.0 | 0.00 | 0.00 | 0.00 | 77 | 1010.3 |
| 20260505100044 | 59 | 208 | 2.0 | 5.0 | 0.00 | 0.00 | 0.00 | 77 | 1010.3 |
| 20260505095526 | 59 | 249 | 2.0 | 7.0 | 0.00 | 0.00 | 0.00 | 77 | 1010.3 |
| 20260505095025 | 59 | 155 | 3.0 | 7.0 | 0.00 | 0.00 | 0.00 | 77 | 1010.3 |
| 20260505094545 | 59 | 150 | 1.0 | 5.0 | 0.00 | 0.00 | 0.00 | 78 | 1010.3 |
| 20260505094027 | 59 | 198 | 2.0 | 5.0 | 0.00 | 0.00 | 0.00 | 78 | 1010.3 |
| 20260505093525 | 59 | 215 | 1.0 | 4.0 | 0.00 | 0.00 | 0.00 | 79 | 1010.2 |
| 20260505093045 | 59 | 158 | 1.0 | 3.0 | 0.00 | 0.00 | 0.00 | 79 | 1010.4 |
| 20260505092525 | 59 | 219 | 1.0 | 3.0 | 0.00 | 0.00 | 0.00 | 79 | 1010.3 |
| 20260505092025 | 59 | 257 | 1.0 | 3.0 | 0.00 | 0.00 | 0.00 | 80 | 1010.3 |
| 20260505091549 | 59 | 160 | 1.0 | 4.0 | 0.00 | 0.00 | 0.00 | 80 | 1010.3 |
| 20260505091024 | 59 | 153 | 1.0 | 6.0 | 0.00 | 0.00 | 0.00 | 80 | 1010.2 |
| 20260505090524 | 59 | 197 | 1.0 | 6.0 | 0.00 | 0.00 | 0.00 | 80 | 1010.2 |
| 20260505090056 | 59 | 155 | 1.0 | 2.0 | 0.00 | 0.00 | 0.00 | 80 | 1010.2 |
| 20260505085526 | 59 | 179 | 1.0 | 2.0 | 0.00 | 0.00 | 0.00 | 79 | 1010.2 |
| 20260505085028 | 59 | 150 | 0.0 | 4.0 | 0.00 | 0.00 | 0.00 | 79 | 1010.4 |
| 20260505084546 | 59 | 246 | 1.0 | 4.0 | 0.00 | 0.00 | 0.00 | 79 | 1010.4 |
| 20260505084027 | 59 | 206 | 1.0 | 6.0 | 0.00 | 0.00 | 0.00 | 79 | 1010.4 |
| 20260505083527 | 59 | 265 | 2.0 | 6.0 | 0.00 | 0.00 | 0.00 | 79 | 1010.3 |
| 20260505083049 | 59 | 162 | 2.0 | 11.0 | 0.00 | 0.00 | 0.00 | 79 | 1010.4 |
| 20260505082527 | 59 | 252 | 2.0 | 11.0 | 0.00 | 0.00 | 0.00 | 79 | 1010.3 |
| 20260505082025 | 59 | 244 | 2.0 | 9.0 | 0.00 | 0.00 | 0.00 | 78 | 1009.9 |
| 20260505081544 | 60 | 217 | 2.0 | 8.0 | 0.00 | 0.00 | 0.00 | 78 | 1010.0 |
| 20260505081025 | 60 | 193 | 3.0 | 8.0 | 0.00 | 0.00 | 0.00 | 76 | 1010.1 |
| 20260505080528 | 60 | 235 | 3.0 | 8.0 | 0.00 | 0.00 | 0.00 | 74 | 1010.2 |
| 20260505080045 | 60 | 199 | 2.0 | 5.0 | 0.00 | 0.00 | 0.00 | 74 | 1010.3 |
| 20260505075524 | 60 | 206 | 2.0 | 5.0 | 0.00 | 0.00 | 0.00 | 73 | 1010.3 |
| 20260505075027 | 60 | 218 | 2.0 | 7.0 | 0.00 | 0.00 | 0.00 | 73 | 1010.4 |
| 20260505074544 | 60 | 257 | 2.0 | 7.0 | 0.00 | 0.00 | 0.00 | 73 | 1010.1 |
| 20260505074027 | 60 | 271 | 1.0 | 5.0 | 0.00 | 0.00 | 0.00 | 73 | 1010.1 |
| 20260505073525 | 60 | 216 | 2.0 | 5.0 | 0.00 | 0.00 | 0.00 | 73 | 1010.1 |
| 20260505073055 | 60 | 153 | 0.0 | 4.0 | 0.00 | 0.00 | 0.00 | 73 | 1010.0 |
| 20260505072524 | 60 | 256 | 1.0 | 4.0 | 0.00 | 0.00 | 0.00 | 74 | 1010.1 |
| 20260505072027 | 60 | 252 | 1.0 | 5.0 | 0.00 | 0.00 | 0.00 | 74 | 1010.0 |
| 20260505071544 | 59 | 221 | 2.0 | 5.0 | 0.00 | 0.00 | 0.00 | 74 | 1010.0 |
| 20260505071024 | 59 | 286 | 2.0 | 5.0 | 0.00 | 0.00 | 0.00 | 74 | 1009.9 |
| 20260505070524 | 59 | 234 | 1.0 | 4.0 | 0.00 | 0.00 | 0.00 | 74 | 1010.0 |
| 20260505070050 | 59 | 259 | 1.0 | 4.0 | 0.00 | 0.00 | 0.00 | 75 | 1009.9 |
| 20260505065524 | 59 | 271 | 0.0 | 5.0 | 0.00 | 0.00 | 0.00 | 74 | 1009.8 |
| 20260505065027 | 59 | 273 | 1.0 | 5.0 | 0.00 | 0.00 | 0.00 | 74 | 1009.8 |
| 20260505064546 | 59 | 225 | 1.0 | 5.0 | 0.00 | 0.00 | 0.00 | 74 | 1009.9 |
| 20260505064024 | 59 | 245 | 1.0 | 5.0 | 0.00 | 0.00 | 0.00 | 74 | 1009.9 |
| 20260505063524 | 59 | 254 | 0.0 | 4.0 | 0.00 | 0.00 | 0.00 | 74 | 1009.9 |
| 20260505063049 | 59 | 215 | 1.0 | 5.0 | 0.00 | 0.00 | 0.00 | 73 | 1009.8 |
| 20260505062528 | 59 | 241 | 1.0 | 5.0 | 0.00 | 0.00 | 0.00 | 73 | 1010.0 |
| 20260505062030 | 59 | 211 | 1.0 | 5.0 | 0.00 | 0.00 | 0.00 | 73 | 1009.9 |
| 20260505061545 | 59 | 160 | 1.0 | 6.0 | 0.00 | 0.00 | 0.00 | 72 | 1010.0 |
| 20260505061029 | 60 | 256 | 2.0 | 6.0 | 0.00 | 0.00 | 0.00 | 72 | 1010.0 |
| 20260505060525 | 60 | 259 | 1.0 | 6.0 | 0.00 | 0.00 | 0.00 | 72 | 1009.9 |
| 20260505060040 | 60 | 181 | 2.0 | 7.0 | 0.00 | 0.00 | 0.00 | 71 | 1010.0 |
| 20260505055528 | 60 | 139 | 3.0 | 7.0 | 0.00 | 0.00 | 0.00 | 70 | 1009.9 |
| 20260505055025 | 60 | 251 | 2.0 | 7.0 | 0.00 | 0.00 | 0.00 | 70 | 1009.9 |
| 20260505054600 | 61 | 226 | 1.0 | 5.0 | 0.00 | 0.00 | 0.00 | 69 | 1010.1 |
| 20260505054025 | 61 | 180 | 2.0 | 6.0 | 0.00 | 0.00 | 0.00 | 68 | 1010.0 |
| 20260505053525 | 61 | 153 | 1.0 | 6.0 | 0.00 | 0.00 | 0.00 | 68 | 1010.1 |
| 20260505053049 | 61 | 225 | 2.0 | 6.0 | 0.00 | 0.00 | 0.00 | 67 | 1010.3 |
| 20260505052527 | 61 | 265 | 3.0 | 7.0 | 0.00 | 0.00 | 0.00 | 67 | 1010.2 |
| 20260505052028 | 61 | 161 | 1.0 | 7.0 | 0.00 | 0.00 | 0.00 | 66 | 1010.2 |
| 20260505051544 | 62 | 215 | 2.0 | 9.0 | 0.00 | 0.00 | 0.00 | 66 | 1010.2 |
| 20260505051027 | 62 | 209 | 3.0 | 9.0 | 0.00 | 0.00 | 0.00 | 66 | 1010.2 |
| 20260505050528 | 61 | 124 | 4.0 | 10.0 | 0.00 | 0.00 | 0.00 | 66 | 1010.2 |
| 20260505041550 | 61 | 240 | 2.0 | 7.0 | 0.00 | 0.00 | 0.00 | 65 | 1010.3 |
| 20260505041027 | 61 | 220 | 2.0 | 7.0 | 0.00 | 0.00 | 0.00 | 65 | 1010.3 |
| 20260505040528 | 61 | 234 | 3.0 | 8.0 | 0.00 | 0.00 | 0.00 | 65 | 1010.3 |
| 20260505040044 | 61 | 134 | 2.0 | 9.0 | 0.00 | 0.00 | 0.00 | 65 | 1010.2 |
| 20260505035527 | 61 | 237 | 3.0 | 9.0 | 0.00 | 0.00 | 0.00 | 65 | 1010.3 |
| 20260505035027 | 61 | 245 | 1.0 | 8.0 | 0.00 | 0.00 | 0.00 | 65 | 1010.2 |
| 20260505034537 | 61 | 121 | 2.0 | 8.0 | 0.00 | 0.00 | 0.00 | 65 | 1010.2 |
| 20260505034027 | 61 | 146 | 2.0 | 8.0 | 0.00 | 0.00 | 0.00 | 64 | 1010.2 |
| 20260505033527 | 61 | 203 | 2.0 | 7.0 | 0.00 | 0.00 | 0.00 | 64 | 1010.1 |
| 20260505033037 | 61 | 222 | 2.0 | 7.0 | 0.00 | 0.00 | 0.00 | 64 | 1010.1 |
| 20260505032527 | 61 | 162 | 2.0 | 7.0 | 0.00 | 0.00 | 0.00 | 64 | 1010.1 |
| 20260505032028 | 62 | 197 | 3.0 | 7.0 | 0.00 | 0.00 | 0.00 | 63 | 1010.0 |
| 20260505031545 | 62 | 130 | 2.0 | 8.0 | 0.00 | 0.00 | 0.00 | 63 | 1010.0 |
| 20260505031024 | 62 | 217 | 2.0 | 10.0 | 0.00 | 0.00 | 0.00 | 63 | 1010.3 |
| 20260505030525 | 62 | 212 | 3.0 | 10.0 | 0.00 | 0.00 | 0.00 | 63 | 1010.3 |
| 20260505030056 | 62 | 198 | 3.0 | 10.0 | 0.00 | 0.00 | 0.00 | 63 | 1010.4 |
| 20260505025528 | 62 | 246 | 2.0 | 10.0 | 0.00 | 0.00 | 0.00 | 63 | 1010.4 |
| 20260505025026 | 62 | 176 | 3.0 | 10.0 | 0.00 | 0.00 | 0.00 | 62 | 1010.4 |
| 20260505024537 | 62 | 281 | 3.0 | 9.0 | 0.00 | 0.00 | 0.00 | 62 | 1010.4 |
| 20260505024027 | 62 | 249 | 3.0 | 8.0 | 0.00 | 0.00 | 0.00 | 62 | 1010.4 |
| 20260505023525 | 62 | 200 | 2.0 | 8.0 | 0.00 | 0.00 | 0.00 | 62 | 1010.4 |
| 20260505023047 | 62 | 187 | 2.0 | 9.0 | 0.00 | 0.00 | 0.00 | 61 | 1010.6 |
| 20260505022527 | 62 | 163 | 3.0 | 9.0 | 0.00 | 0.00 | 0.00 | 61 | 1010.6 |
| 20260505022027 | 62 | 146 | 2.0 | 6.0 | 0.00 | 0.00 | 0.00 | 60 | 1010.5 |
| 20260505021553 | 62 | 171 | 1.0 | 6.0 | 0.00 | 0.00 | 0.00 | 59 | 1010.6 |
| 20260505021026 | 62 | 143 | 1.0 | 5.0 | 0.00 | 0.00 | 0.00 | 58 | 1010.4 |
| 20260505020526 | 62 | 182 | 1.0 | 6.0 | 0.00 | 0.00 | 0.00 | 58 | 1010.5 |
| 20260505020053 | 62 | 219 | 2.0 | 7.0 | 0.00 | 0.00 | 0.00 | 57 | 1010.4 |
| 20260505015527 | 62 | 180 | 2.0 | 7.0 | 0.00 | 0.00 | 0.00 | 56 | 1010.5 |
| 20260505015027 | 62 | 257 | 2.0 | 5.0 | 0.00 | 0.00 | 0.00 | 55 | 1010.5 |
| 20260505014543 | 63 | 146 | 2.0 | 6.0 | 0.00 | 0.00 | 0.00 | 53 | 1010.6 |
| 20260505014027 | 63 | 148 | 1.0 | 6.0 | 0.00 | 0.00 | 0.00 | 52 | 1010.5 |
| 20260505013527 | 63 | 163 | 1.0 | 8.0 | 0.00 | 0.00 | 0.00 | 51 | 1010.6 |
| 20260505013042 | 63 | 193 | 1.0 | 8.0 | 0.00 | 0.00 | 0.00 | 50 | 1010.4 |
| 20260505012527 | 63 | 136 | 1.0 | 5.0 | 0.00 | 0.00 | 0.00 | 49 | 1010.5 |
| 20260505012027 | 63 | 175 | 1.0 | 6.0 | 0.00 | 0.00 | 0.00 | 49 | 1010.3 |
| 20260505011546 | 64 | 169 | 2.0 | 6.0 | 0.00 | 0.00 | 0.00 | 48 | 1010.4 |
| 20260505011023 | 64 | 173 | 1.0 | 4.0 | 0.00 | 0.00 | 0.00 | 48 | 1010.2 |
| 20260505010524 | 64 | 225 | 1.0 | 4.0 | 0.00 | 0.00 | 0.00 | 47 | 1010.2 |
| 20260505010105 | 64 | 191 | 2.0 | 4.0 | 0.00 | 0.00 | 0.00 | 47 | 1010.2 |
| 20260505005526 | 64 | 205 | 0.0 | 2.0 | 0.00 | 0.00 | 0.00 | 47 | 1010.1 |
| 20260505005028 | 65 | 240 | 1.0 | 4.0 | 0.00 | 0.00 | 0.00 | 46 | 1010.0 |
| 20260505004546 | 65 | 192 | 1.0 | 4.0 | 0.00 | 0.00 | 0.00 | 46 | 1010.0 |
| 20260505004024 | 65 | 226 | 0.0 | 4.0 | 0.00 | 0.00 | 0.00 | 45 | 1010.0 |
| 20260505003524 | 65 | 219 | 1.0 | 5.0 | 0.00 | 0.00 | 0.00 | 45 | 1010.0 |
| 20260505003049 | 65 | 189 | 2.0 | 5.0 | 0.00 | 0.00 | 0.00 | 45 | 1010.0 |
| 20260505002524 | 66 | 215 | 0.0 | 7.0 | 0.00 | 0.00 | 0.00 | 44 | 1009.9 |
| 20260505002024 | 66 | 205 | 1.0 | 7.0 | 0.00 | 0.00 | 0.00 | 43 | 1009.9 |
| 20260505001541 | 66 | 207 | 2.0 | 6.0 | 0.00 | 0.00 | 0.00 | 43 | 1009.8 |
| 20260505001027 | 67 | 0 | 1.0 | 7.0 | 0.00 | 0.00 | 0.00 | 42 | 1009.8 |
| 20260505000525 | 67 | 250 | 2.0 | 7.0 | 0.00 | 0.00 | 0.00 | 42 | 1009.8 |
| 20260505000045 | 67 | 157 | 1.0 | 4.0 | 0.00 | 0.00 | 0.00 | 41 | 1009.8 |
| 20260504235527 | 67 | 150 | 1.0 | 4.0 | 0.00 | 0.00 | 0.00 | 41 | 1009.6 |
| 20260504235024 | 68 | 146 | 0.0 | 5.0 | 0.00 | 0.00 | 0.00 | 40 | 1009.6 |
| 20260504234544 | 68 | 256 | 1.0 | 5.0 | 0.00 | 0.00 | 0.00 | 39 | 1009.6 |
| 20260504234027 | 69 | 156 | 1.0 | 5.0 | 0.00 | 0.00 | 0.00 | 39 | 1009.6 |
| 20260504233523 | 69 | 161 | 1.0 | 4.0 | 0.00 | 0.00 | 0.00 | 38 | 1009.6 |
| 20260504233051 | 69 | 199 | 1.0 | 4.0 | 0.00 | 0.00 | 0.00 | 37 | 1009.5 |
| 20260504232528 | 70 | 169 | 0.0 | 4.0 | 0.00 | 0.00 | 0.00 | 37 | 1009.6 |
| 20260504232025 | 70 | 262 | 2.0 | 6.0 | 0.00 | 0.00 | 0.00 | 36 | 1009.5 |
| 20260504231542 | 70 | 265 | 1.0 | 6.0 | 0.00 | 0.00 | 0.00 | 36 | 1009.5 |
| 20260504231024 | 70 | 243 | 2.0 | 7.0 | 0.00 | 0.00 | 0.00 | 35 | 1009.6 |
| 20260504230527 | 70 | 252 | 2.0 | 7.0 | 0.00 | 0.00 | 0.00 | 35 | 1009.5 |
| 20260504230100 | 71 | 211 | 2.0 | 10.0 | 0.00 | 0.00 | 0.00 | 35 | 1009.5 |
| 20260504225524 | 71 | 266 | 3.0 | 10.0 | 0.00 | 0.00 | 0.00 | 35 | 1009.6 |
| 20260504225024 | 71 | 277 | 2.0 | 9.0 | 0.00 | 0.00 | 0.00 | 35 | 1009.5 |
| 20260504224556 | 71 | 220 | 2.0 | 10.0 | 0.00 | 0.00 | 0.00 | 35 | 1009.6 |
| 20260504224024 | 71 | 248 | 3.0 | 10.0 | 0.00 | 0.00 | 0.00 | 34 | 1009.6 |
| 20260504223524 | 71 | 265 | 2.0 | 9.0 | 0.00 | 0.00 | 0.00 | 34 | 1009.5 |
| 20260504223039 | 71 | 238 | 4.0 | 10.0 | 0.00 | 0.00 | 0.00 | 34 | 1009.6 |
| 20260504222525 | 71 | 277 | 3.0 | 10.0 | 0.00 | 0.00 | 0.00 | 34 | 1009.5 |
| 20260504222023 | 71 | 219 | 3.0 | 12.0 | 0.00 | 0.00 | 0.00 | 34 | 1009.5 |
| 20260504221544 | 71 | 271 | 3.0 | 12.0 | 0.00 | 0.00 | 0.00 | 34 | 1009.5 |
| 20260504221030 | 71 | 267 | 5.0 | 12.0 | 0.00 | 0.00 | 0.00 | 34 | 1009.5 |
| 20260504220527 | 71 | 262 | 2.0 | 8.0 | 0.00 | 0.00 | 0.00 | 34 | 1009.4 |
| 20260504220051 | 71 | 262 | 2.0 | 12.0 | 0.00 | 0.00 | 0.00 | 34 | 1009.5 |
| 20260504215531 | 71 | 219 | 4.0 | 12.0 | 0.00 | 0.00 | 0.00 | 33 | 1009.5 |
| 20260504215026 | 72 | 232 | 4.0 | 9.0 | 0.00 | 0.00 | 0.00 | 33 | 1009.4 |
| 20260504214543 | 72 | 263 | 2.0 | 12.0 | 0.00 | 0.00 | 0.00 | 32 | 1009.4 |
| 20260504214027 | 72 | 298 | 4.0 | 12.0 | 0.00 | 0.00 | 0.00 | 32 | 1009.5 |
| 20260504213527 | 72 | 269 | 3.0 | 11.0 | 0.00 | 0.00 | 0.00 | 33 | 1009.5 |
| 20260504213040 | 72 | 153 | 5.0 | 11.0 | 0.00 | 0.00 | 0.00 | 32 | 1009.5 |
| 20260504212528 | 72 | 270 | 4.0 | 10.0 | 0.00 | 0.00 | 0.00 | 32 | 1009.5 |
| 20260504212027 | 72 | 294 | 4.0 | 10.0 | 0.00 | 0.00 | 0.00 | 33 | 1009.4 |
| 20260504211546 | 72 | 147 | 4.0 | 15.0 | 0.00 | 0.00 | 0.00 | 32 | 1009.4 |
| 20260504211027 | 72 | 261 | 5.0 | 15.0 | 0.00 | 0.00 | 0.00 | 32 | 1009.4 |
| 20260504210820 | 72 | 321 | 4.0 | 11.0 | 0.00 | 0.00 | 0.00 | 32 | 1009.5 |
| 20260504210059 | 72 | 282 | 3.0 | 11.0 | 0.00 | 0.00 | 0.00 | 31 | 1009.4 |
| 20260504205528 | 72 | 196 | 3.0 | 7.0 | 0.00 | 0.00 | 0.00 | 31 | 1009.4 |
| 20260504205031 | 72 | 289 | 3.0 | 14.0 | 0.00 | 0.00 | 0.00 | 31 | 1009.4 |
| 20260504204547 | 72 | 283 | 4.0 | 14.0 | 0.00 | 0.00 | 0.00 | 31 | 1009.4 |
| 20260504204028 | 72 | 288 | 3.0 | 13.0 | 0.00 | 0.00 | 0.00 | 31 | 1009.3 |
| 20260504203527 | 72 | 250 | 5.0 | 14.0 | 0.00 | 0.00 | 0.00 | 31 | 1009.3 |
| 20260504203044 | 72 | 260 | 4.0 | 14.0 | 0.00 | 0.00 | 0.00 | 31 | 1009.3 |
| 20260504202527 | 72 | 275 | 4.0 | 14.0 | 0.00 | 0.00 | 0.00 | 31 | 1009.4 |
| 20260504202026 | 72 | 205 | 5.0 | 14.0 | 0.00 | 0.00 | 0.00 | 31 | 1009.5 |
| 20260504201546 | 72 | 259 | 3.0 | 14.0 | 0.00 | 0.00 | 0.00 | 31 | 1009.4 |
| 20260504201024 | 72 | 244 | 3.0 | 14.0 | 0.00 | 0.00 | 0.00 | 31 | 1009.5 |
| 20260504200530 | 72 | 295 | 3.0 | 13.0 | 0.00 | 0.00 | 0.00 | 29 | 1009.4 |
| 20260504200049 | 72 | 240 | 4.0 | 13.0 | 0.00 | 0.00 | 0.00 | 29 | 1009.6 |
| 20260504195525 | 72 | 251 | 3.0 | 13.0 | 0.00 | 0.00 | 0.00 | 30 | 1009.6 |
| 20260504195025 | 72 | 288 | 3.0 | 15.0 | 0.00 | 0.00 | 0.00 | 31 | 1009.6 |
| 20260504194544 | 72 | 269 | 4.0 | 15.0 | 0.00 | 0.00 | 0.00 | 31 | 1009.7 |
| 20260504194025 | 72 | 272 | 6.0 | 15.0 | 0.00 | 0.00 | 0.00 | 30 | 1010.0 |
| 20260504193528 | 72 | 283 | 2.0 | 13.0 | 0.00 | 0.00 | 0.00 | 30 | 1009.9 |
| 20260504193045 | 72 | 286 | 4.0 | 13.0 | 0.00 | 0.00 | 0.00 | 30 | 1010.0 |
| 20260504192526 | 71 | 294 | 3.0 | 11.0 | 0.00 | 0.00 | 0.00 | 30 | 1010.0 |
| 20260504192030 | 72 | 275 | 2.0 | 15.0 | 0.00 | 0.00 | 0.00 | 30 | 1010.1 |
| 20260504191552 | 71 | 298 | 3.0 | 15.0 | 0.00 | 0.00 | 0.00 | 31 | 1010.2 |
| 20260504191027 | 71 | 285 | 5.0 | 13.0 | 0.00 | 0.00 | 0.00 | 29 | 1010.2 |
| 20260504190527 | 71 | 287 | 6.0 | 13.0 | 0.00 | 0.00 | 0.00 | 30 | 1010.3 |
| 20260504190041 | 71 | 257 | 4.0 | 11.0 | 0.00 | 0.00 | 0.00 | 31 | 1010.2 |
| 20260504185524 | 71 | 299 | 4.0 | 9.0 | 0.00 | 0.00 | 0.00 | 30 | 1010.4 |
| 20260504185025 | 71 | 271 | 3.0 | 12.0 | 0.00 | 0.00 | 0.00 | 31 | 1010.4 |
| 20260504184544 | 71 | 303 | 3.0 | 12.0 | 0.00 | 0.00 | 0.00 | 31 | 1010.5 |
| 20260504184029 | 71 | 259 | 2.0 | 12.0 | 0.00 | 0.00 | 0.00 | 30 | 1010.6 |
| 20260504183526 | 71 | 201 | 4.0 | 15.0 | 0.00 | 0.00 | 0.00 | 31 | 1010.7 |
| 20260504183045 | 71 | 281 | 5.0 | 15.0 | 0.00 | 0.00 | 0.00 | 31 | 1010.6 |
| 20260504182525 | 71 | 247 | 3.0 | 16.0 | 0.00 | 0.00 | 0.00 | 30 | 1010.8 |
| 20260504182025 | 70 | 290 | 4.0 | 16.0 | 0.00 | 0.00 | 0.00 | 30 | 1011.0 |
| 20260504181543 | 70 | 249 | 5.0 | 14.0 | 0.00 | 0.00 | 0.00 | 31 | 1010.9 |